Location: East Irvine
(33.6759°N, 117.7598°W)
Time: 23:15:25
(UTC+00:00)

Cosmos 2082 Rocket - Pass Details

Date: 15 November 2025
Orbit: 834 x 851 km, 71.0° (Epoch: 13 December)

Event Time Altitude Azimuth Distance (km) Brightness Sun altitude
Rises 03:04:03 0° 339° (NNW) 3,384 5.5 -28.2°
Reaches altitude 10° 03:06:29 10° 340° (NNW) 2,447 4.8 -28.7°
Enters shadow 03:10:12 43° 343° (NNW) 1,152 2.9 -29.5°
